{"data":{"norad_id":45155,"epoch":"2026-05-25T02:53:17.369088Z","epoch_age_seconds":64360,"freshness":"FRESH","line1":"1 45155U 20008AA  26145.12033992  .00000527  00000+0  14510-2 0  9993","line2":"2 45155  87.8911  25.6563 0001831  82.2581 277.8755 13.11415302308061","mean_motion":13.11415302,"eccentricity":0.0001831,"inclination_deg":87.8911,"raan_deg":25.6563,"arg_perigee_deg":82.2581,"mean_anomaly_deg":277.8755,"bstar":0.001451,"rev_number":30806,"period_min":109.80503260896,"perigee_km":1216.2982468801,"apogee_km":1219.0798383769,"semimajor_km":7595.8260426285,"source":"CELESTRAK","updated_at":"2026-05-25T13:38:22.337997Z"}}